2018-094A (43710 NORAD) Tracking and Keplerian Element Data

This shows tracking and keplerian element data for the satellite.

Feedback or suggestion? Click here.




ElementValue
Catalog43710
Name2018-094A
Epoch Orbit439
Epoch Day352.8247347
Epoch Year2018
RAAN357.3235
Inclination97.4079
Eccentricity0.0014383
Argument of Perigee159.4172
Mean Anonmoly325.1495
Mean Motion15.2328199
Decay Rate1.91E-06
L11 43710U 18094A 18352.82473470 .00000191 00000-0 11007-4 0 9995
L22 43710 97.4079 357.3235 0014383 159.4172 325.1495 15.23281990 4394

Live tracking and technical data element details for 2018-094A (NORAD 43710). 2018-094A can be tracked NOW for your location showing map with azimuth and elevation plus other details from your city location.

Track the satellite on the map from your city or location and see movement details for azimuth, elevation, latitude, longitude, range, height, and movement on the map or in text.







IsCatalogInMostPopularTable: catalog: 43710, numindb: 39
Update: records affected: 1



GetName: 43710 2018-094A

Hit Count: updated at: Wed, 23 Jan 2019 02:57:19 GMT